Location: Anankanda
(14.7841°N, 3.0348°W)
Time: 01:28:26
(UTC+00:00)

CCE 1 Rocket - Pass Details

Date: 17 January 2021
Orbit: 544 x 3982 km, 28.9° (Epoch: 07 March)

Event Time Altitude Azimuth Distance (km) Brightness Sun altitude
Rises 19:43:27 0° 298° (WNW) 3,976 8.4 -23.8°
Reaches altitude 10° 19:46:50 10° 301° (WNW) 2,597 7.3 -24.6°
Enters shadow 19:51:45 58° 336° (NNW) 777 4.0 -25.7°
